Westminster, MD

6:53 AM EDT on October 17, 2019 (GMT -0400)
Carroll County Regional-Poage

Weather History for KDMW - September, 2019

Change the Weather History Date:

Friday, September 20, 2019

  Actual Average (WUND) Record (WUND)
Temperature  
Mean Temperature 66 °F -  
Max Temperature 82 °F - - (-1)
Min Temperature 50 °F - - (-1)
Cooling Degree Days 1    
Growing Degree Days 16 (Base 50)    
Moisture  
Dew Point 50 °F    
Average Humidity 62    
Maximum Humidity 88    
Minimum Humidity 32    
Precipitation  
Precipitation 0.00 in - - ()
Sea Level Pressure  
Sea Level Pressure 30.27 in    
Wind  
Wind Speed 2 mph (SW)    
Max Wind Speed 8 mph    
Max Gust Speed -    
Visibility 10 miles    
Events      
Averages and records for this station are not official NWS values.
T = Trace of Precipitation, MM = Missing Value Source: NWS Daily Summary

Daily Weather History Graph

Daily Weather History Graph

Search for Another Location

Airport or City:

Astronomy

Sep. 20, 2019 Rise Set
Actual Time 6:53 AM EDT 7:08 PM EDT
Civil Twilight 6:26 AM EDT 7:35 PM EDT
Nautical Twilight 5:55 AM EDT 8:07 PM EDT
Astronomical Twilight 5:22 AM EDT 8:39 PM EDT
Moon 10:58 PM EDT (9/20) 12:54 PM EDT (9/20)
Length of Visible Light 13h 08m
Length of Day
12h 15m
Waning Gibbous, 65% of the Moon is Illuminated
Sep 20
Waning Gibbous
Sep 21
Last Quarter
Sep 28
New
Oct 5
First Quarter
Oct 13
Full

Hourly Weather History & Observations

Time (EDT) Temp. Dew Point Humidity Pressure Visibility Wind Dir Wind Speed Gust Speed Precip Events Conditions
12:00 AM 57.2 °F 48.2 °F 72% 30.29 in 10.0 mi Calm Calm - N/A   Clear
12:20 AM 57.2 °F 48.2 °F 72% 30.29 in 10.0 mi Calm Calm - N/A   Clear
12:40 AM 57.2 °F 48.2 °F 72% 30.29 in 10.0 mi Calm Calm - N/A   Clear
1:00 AM 55.4 °F 48.2 °F 77% 30.29 in 10.0 mi Calm Calm - N/A   Clear
1:20 AM 55.4 °F 48.2 °F 77% 30.29 in 10.0 mi Calm Calm - N/A   Clear
1:40 AM 53.6 °F 48.2 °F 82% 30.29 in 10.0 mi Calm Calm - N/A   Clear
2:00 AM 53.6 °F 48.2 °F 82% 30.29 in 10.0 mi Calm Calm - N/A   Clear
2:20 AM 53.6 °F 48.2 °F 82% 30.29 in 10.0 mi Calm Calm - N/A   Clear
2:40 AM 51.8 °F 48.2 °F 88% 30.29 in 10.0 mi Calm Calm - N/A   Clear
3:00 AM 53.6 °F 48.2 °F 82% 30.29 in 10.0 mi Calm Calm - N/A   Clear
3:20 AM 53.6 °F 48.2 °F 82% 30.28 in 10.0 mi Calm Calm - N/A   Clear
3:40 AM 53.6 °F 48.2 °F 82% 30.29 in 10.0 mi Calm Calm - N/A   Clear
4:00 AM 51.8 °F 46.4 °F 82% 30.29 in 10.0 mi Calm Calm - N/A   Clear
4:20 AM 51.8 °F 46.4 °F 82% 30.29 in 10.0 mi Calm Calm - N/A   Clear
4:40 AM 51.8 °F 46.4 °F 82% 30.29 in 10.0 mi Calm Calm - N/A   Clear
5:00 AM 51.8 °F 48.2 °F 88% 30.29 in 10.0 mi Calm Calm - N/A   Clear
5:20 AM 51.8 °F 48.2 °F 88% 30.29 in 10.0 mi Calm Calm - N/A   Clear
5:40 AM 51.8 °F 48.2 °F 88% 30.29 in 10.0 mi Calm Calm - N/A   Clear
6:00 AM 50.0 °F 46.4 °F 87% 30.29 in 10.0 mi Calm Calm - N/A   Clear
6:40 AM 51.8 °F 48.2 °F 88% 30.30 in 10.0 mi Calm Calm - N/A   Clear
7:00 AM 50.0 °F 46.4 °F 87% 30.30 in 10.0 mi Calm Calm - N/A   Clear
7:20 AM 51.8 °F 46.4 °F 82% 30.31 in 10.0 mi Calm Calm - N/A   Clear
7:40 AM 53.6 °F 48.2 °F 82% 30.31 in 10.0 mi Calm Calm - N/A   Clear
8:00 AM 55.4 °F 50.0 °F 82% 30.32 in 10.0 mi Calm Calm - N/A   Clear
8:20 AM 57.2 °F 51.8 °F 82% 30.32 in 10.0 mi SSW 5.8 mph - N/A   Clear
8:40 AM 60.8 °F 51.8 °F 72% 30.32 in 10.0 mi SW 3.5 mph - N/A   Clear
9:00 AM 60.8 °F 51.8 °F 72% 30.33 in 10.0 mi SW 6.9 mph - N/A   Clear
9:20 AM 62.6 °F 53.6 °F 72% 30.33 in 10.0 mi WSW 8.1 mph - N/A   Clear
10:00 AM 64.4 °F 53.6 °F 68% 30.32 in 10.0 mi SW 8.1 mph - N/A   Clear
10:20 AM 64.4 °F 53.6 °F 68% 30.31 in 10.0 mi WSW 8.1 mph - N/A   Clear
10:40 AM 66.2 °F 53.6 °F 64% 30.31 in 10.0 mi WSW 8.1 mph - N/A   Clear
11:00 AM 66.2 °F 53.6 °F 64% 30.31 in 10.0 mi WSW 5.8 mph - N/A   Clear
11:20 AM 69.8 °F 51.8 °F 53% 30.30 in 10.0 mi SW 8.1 mph - N/A   Clear
11:40 AM 69.8 °F 51.8 °F 53% 30.29 in 10.0 mi West 5.8 mph - N/A   Clear
12:00 PM 69.8 °F 51.8 °F 53% 30.29 in 10.0 mi SW 5.8 mph - N/A   Clear
12:20 PM 71.6 °F 51.8 °F 50% 30.28 in 10.0 mi WSW 5.8 mph - N/A   Clear
12:40 PM 73.4 °F 51.8 °F 47% 30.28 in 10.0 mi South 5.8 mph - N/A   Clear
1:00 PM 73.4 °F 50.0 °F 44% 30.27 in 10.0 mi SW 6.9 mph - N/A   Clear
1:20 PM 75.2 °F 48.2 °F 38% 30.26 in 10.0 mi South 5.8 mph - N/A   Clear
1:40 PM 77.0 °F 50.0 °F 39% 30.25 in 10.0 mi SSE 3.5 mph - N/A   Clear
2:00 PM 75.2 °F 46.4 °F 36% 30.25 in 10.0 mi SW 3.5 mph - N/A   Clear
2:20 PM 77.0 °F 48.2 °F 36% 30.24 in 10.0 mi SW 5.8 mph - N/A   Clear
2:40 PM 78.8 °F 48.2 °F 34% 30.23 in 10.0 mi Calm Calm - N/A   Clear
3:00 PM 78.8 °F 48.2 °F 34% 30.22 in 10.0 mi WSW 5.8 mph - N/A   Clear
3:20 PM 80.6 °F 50.0 °F 34% 30.22 in 10.0 mi SE 3.5 mph - N/A   Clear
3:40 PM 78.8 °F 48.2 °F 34% 30.22 in 10.0 mi Calm Calm - N/A   Clear
4:00 PM 80.6 °F 48.2 °F 32% 30.21 in 10.0 mi WSW 8.1 mph - N/A   Clear
4:20 PM 80.6 °F 48.2 °F 32% 30.21 in 10.0 mi West 3.5 mph - N/A   Clear
4:40 PM 80.6 °F 48.2 °F 32% 30.21 in 10.0 mi Calm Calm - N/A   Clear
5:00 PM 82.4 °F 50.0 °F 32% 30.21 in 10.0 mi SSW 4.6 mph - N/A   Clear
5:20 PM 80.6 °F 48.2 °F 32% 30.21 in 10.0 mi WSW 4.6 mph - N/A   Clear
5:40 PM 80.6 °F 50.0 °F 34% 30.21 in 10.0 mi SSW 4.6 mph - N/A   Clear
6:00 PM 78.8 °F 50.0 °F 36% 30.21 in 10.0 mi SSW 3.5 mph - N/A   Clear
6:20 PM 80.6 °F 51.8 °F 37% 30.22 in 10.0 mi SSW 4.6 mph - N/A   Clear
6:40 PM 78.8 °F 50.0 °F 36% 30.22 in 10.0 mi South 4.6 mph - N/A   Clear
7:00 PM 75.2 °F 51.8 °F 44% 30.22 in 10.0 mi South 4.6 mph - N/A   Clear
7:20 PM 73.4 °F 51.8 °F 47% 30.22 in 10.0 mi South 3.5 mph - N/A   Clear
7:40 PM 71.6 °F 51.8 °F 50% 30.23 in 10.0 mi Calm Calm - N/A   Clear
8:00 PM 69.8 °F 51.8 °F 53% 30.23 in 10.0 mi Calm Calm - N/A   Clear
8:20 PM 69.8 °F 51.8 °F 53% 30.23 in 10.0 mi Calm Calm - N/A   Clear
8:40 PM 66.2 °F 53.6 °F 64% 30.23 in 10.0 mi Calm Calm - N/A   Clear
9:00 PM 66.2 °F 53.6 °F 64% 30.23 in 10.0 mi Calm Calm - N/A   Clear
9:20 PM 64.4 °F 53.6 °F 68% 30.24 in 10.0 mi Calm Calm - N/A   Clear
9:40 PM 64.4 °F 53.6 °F 68% 30.24 in 10.0 mi Calm Calm - N/A   Clear
10:00 PM 64.4 °F 53.6 °F 68% 30.24 in 10.0 mi Calm Calm - N/A   Clear
10:20 PM 64.4 °F 53.6 °F 68% 30.24 in 10.0 mi South 3.5 mph - N/A   Clear
10:40 PM 64.4 °F 53.6 °F 68% 30.24 in 10.0 mi Calm Calm - N/A   Clear
11:00 PM 62.6 °F 53.6 °F 72% 30.24 in 10.0 mi Calm Calm - N/A   Clear
11:20 PM 62.6 °F 53.6 °F 72% 30.24 in 10.0 mi Calm Calm - N/A   Clear
11:40 PM 62.6 °F 53.6 °F 72% 30.24 in 10.0 mi Calm Calm - N/A   Clear